Time,TemperatureF,DewpointF,PressureIn,WindDirection,WindDirectionDegrees,WindSpeedMPH,WindSpeedGustMPH,Humidity,HourlyPrecipIn,Conditions,Clouds,dailyrainin,SoftwareType,DateUTC
2013-05-31 00:01:00,72.2,64.6,30.01,SSE,149,0.0,0.0,77,0.00,,---,0.00,VWS V14.01,2013-05-31 04:01:00,
2013-05-31 00:06:00,72.0,64.4,30.02,East,82,0.0,0.0,77,0.00,,---,0.00,VWS V14.01,2013-05-31 04:06:00,
2013-05-31 00:11:00,72.0,64.4,30.02,East,90,0.0,0.0,77,0.00,,---,0.00,VWS V14.01,2013-05-31 04:11:00,
2013-05-31 00:16:00,72.1,64.5,30.02,ESE,111,0.0,0.0,77,0.00,,---,0.00,VWS V14.01,2013-05-31 04:16:00,
2013-05-31 00:21:00,71.9,64.3,30.02,ESE,111,0.0,0.0,77,0.00,,---,0.00,VWS V14.01,2013-05-31 04:21:00,
2013-05-31 00:26:00,71.7,64.5,30.02,East,98,0.0,0.0,78,0.00,,---,0.00,VWS V14.01,2013-05-31 04:26:00,
2013-05-31 00:31:00,71.6,64.4,30.01,ENE,77,1.0,3.0,78,0.00,,---,0.00,VWS V14.01,2013-05-31 04:31:00,
2013-05-31 00:36:00,71.6,64.4,30.01,ENE,74,1.0,1.0,78,0.00,,---,0.00,VWS V14.01,2013-05-31 04:36:00,
2013-05-31 00:41:00,72.0,64.4,30.01,SE,131,2.0,4.0,77,0.00,,---,0.00,VWS V14.01,2013-05-31 04:41:00,
2013-05-31 00:46:00,72.2,64.6,30.01,SE,129,0.0,0.0,77,0.00,,---,0.00,VWS V14.01,2013-05-31 04:46:00,
2013-05-31 00:51:00,72.1,64.5,30.01,SE,129,0.0,0.0,77,0.00,,---,0.00,VWS V14.01,2013-05-31 04:51:00,
2013-05-31 00:56:00,72.0,64.4,30.02,NNW,340,1.0,2.0,77,0.00,,---,0.00,VWS V14.01,2013-05-31 04:56:00,
2013-05-31 01:01:00,71.9,64.3,30.02,ESE,111,1.0,2.0,77,0.00,,---,0.00,VWS V14.01,2013-05-31 05:01:00,
2013-05-31 01:06:00,72.0,64.4,30.02,ENE,78,1.0,1.0,77,0.00,,---,0.00,VWS V14.01,2013-05-31 05:06:00,
2013-05-31 01:11:00,72.0,64.4,30.02,East,88,1.0,2.0,77,0.00,,---,0.00,VWS V14.01,2013-05-31 05:11:00,
2013-05-31 01:16:00,71.8,64.6,30.02,ESE,121,0.0,0.0,78,0.00,,---,0.00,VWS V14.01,2013-05-31 05:16:00,
2013-05-31 01:21:00,71.6,64.4,30.02,ENE,65,1.0,1.0,78,0.00,,---,0.00,VWS V14.01,2013-05-31 05:21:00,
2013-05-31 01:26:00,71.4,64.2,30.02,East,96,0.0,1.0,78,0.00,,---,0.00,VWS V14.01,2013-05-31 05:26:00,
2013-05-31 01:31:00,71.4,64.2,30.02,SE,140,1.0,1.0,78,0.00,,---,0.00,VWS V14.01,2013-05-31 05:31:00,
2013-05-31 01:35:00,71.3,64.5,30.01,ENE,58,1.0,1.0,79,0.00,,---,0.00,VWS V14.01,2013-05-31 05:35:00,
2013-05-31 01:40:00,71.3,64.5,30.01,East,94,0.0,0.0,79,0.00,,---,0.00,VWS V14.01,2013-05-31 05:40:00,
2013-05-31 01:45:00,71.2,64.4,30.01,SSE,149,0.0,0.0,79,0.00,,---,0.00,VWS V14.01,2013-05-31 05:45:00,
2013-05-31 01:50:00,71.2,64.4,30.01,East,91,0.0,0.0,79,0.00,,---,0.00,VWS V14.01,2013-05-31 05:50:00,
2013-05-31 01:55:00,71.1,64.3,30.01,ESE,118,2.0,2.0,79,0.00,,---,0.00,VWS V14.01,2013-05-31 05:55:00,
2013-05-31 02:00:00,71.1,64.6,30.01,SE,128,0.0,0.0,80,0.00,,---,0.00,VWS V14.01,2013-05-31 06:00:00,
2013-05-31 02:05:00,71.0,64.5,30.01,NE,53,2.0,2.0,80,0.00,,---,0.00,VWS V14.01,2013-05-31 06:05:00,
2013-05-31 02:10:00,71.3,64.5,30.01,East,97,0.0,1.0,79,0.00,,---,0.00,VWS V14.01,2013-05-31 06:10:00,
2013-05-31 02:15:00,71.4,64.6,30.01,ESE,122,0.0,0.0,79,0.00,,---,0.00,VWS V14.01,2013-05-31 06:15:00,
2013-05-31 02:20:00,71.4,64.6,30.01,SE,140,3.0,4.0,79,0.00,,---,0.00,VWS V14.01,2013-05-31 06:20:00,
2013-05-31 02:25:00,71.4,64.6,30.00,ENE,74,0.0,0.0,79,0.00,,---,0.00,VWS V14.01,2013-05-31 06:25:00,
2013-05-31 02:30:00,71.4,64.6,30.00,East,86,4.0,4.0,79,0.00,,---,0.00,VWS V14.01,2013-05-31 06:30:00,
2013-05-31 02:35:00,71.4,64.6,30.00,SW,222,0.0,3.0,79,0.00,,---,0.00,VWS V14.01,2013-05-31 06:35:00,
2013-05-31 02:40:00,71.3,64.5,30.00,ENE,64,0.0,0.0,79,0.00,,---,0.00,VWS V14.01,2013-05-31 06:40:00,
2013-05-31 02:45:00,71.3,64.5,30.00,East,86,0.0,0.0,79,0.00,,---,0.00,VWS V14.01,2013-05-31 06:45:00,
2013-05-31 02:50:00,71.1,64.3,30.00,East,87,2.0,4.0,79,0.00,,---,0.00,VWS V14.01,2013-05-31 06:50:00,
2013-05-31 02:55:00,71.1,64.3,29.99,East,94,0.0,0.0,79,0.00,,---,0.00,VWS V14.01,2013-05-31 06:55:00,
2013-05-31 03:00:00,71.1,64.6,29.99,East,84,0.0,1.0,80,0.00,,---,0.00,VWS V14.01,2013-05-31 07:00:00,
2013-05-31 03:05:00,71.1,64.3,29.99,SE,146,2.0,3.0,79,0.00,,---,0.00,VWS V14.01,2013-05-31 07:05:00,
2013-05-31 03:10:00,71.2,64.4,29.99,ENE,57,0.0,1.0,79,0.00,,---,0.00,VWS V14.01,2013-05-31 07:10:00,
2013-05-31 03:15:00,71.1,64.3,29.98,ENE,67,0.0,0.0,79,0.00,,---,0.00,VWS V14.01,2013-05-31 07:15:00,
2013-05-31 03:20:00,71.0,64.5,29.98,ESE,103,0.0,0.0,80,0.00,,---,0.00,VWS V14.01,2013-05-31 07:20:00,
2013-05-31 03:25:00,70.9,64.4,29.98,ESE,114,0.0,0.0,80,0.00,,---,0.00,VWS V14.01,2013-05-31 07:25:00,
2013-05-31 03:30:00,71.0,64.2,29.98,ESE,104,1.0,2.0,79,0.00,,---,0.00,VWS V14.01,2013-05-31 07:30:00,
2013-05-31 03:35:00,71.0,64.2,29.98,SE,140,0.0,0.0,79,0.00,,---,0.00,VWS V14.01,2013-05-31 07:35:00,
2013-05-31 03:40:00,71.0,64.2,29.98,East,83,0.0,0.0,79,0.00,,---,0.00,VWS V14.01,2013-05-31 07:40:00,
2013-05-31 03:45:00,71.0,64.2,29.98,ESE,111,0.0,0.0,79,0.00,,---,0.00,VWS V14.01,2013-05-31 07:45:00,
2013-05-31 03:50:00,70.9,64.1,29.98,East,83,2.0,2.0,79,0.00,,---,0.00,VWS V14.01,2013-05-31 07:50:00,
2013-05-31 03:55:00,71.0,64.2,29.98,SSE,157,2.0,4.0,79,0.00,,---,0.00,VWS V14.01,2013-05-31 07:55:00,
2013-05-31 04:00:00,71.1,64.3,29.98,SE,133,1.0,2.0,79,0.00,,---,0.00,VWS V14.01,2013-05-31 08:00:00,
2013-05-31 04:05:00,71.0,64.2,29.98,East,89,1.0,1.0,79,0.00,,---,0.00,VWS V14.01,2013-05-31 08:05:00,
2013-05-31 04:10:00,70.8,64.0,29.98,East,98,2.0,2.0,79,0.00,,---,0.00,VWS V14.01,2013-05-31 08:10:00,
2013-05-31 04:15:00,70.7,63.9,29.98,East,79,4.0,4.0,79,0.00,,---,0.00,VWS V14.01,2013-05-31 08:15:00,
2013-05-31 04:20:00,70.7,63.9,29.98,East,83,0.0,1.0,79,0.00,,---,0.00,VWS V14.01,2013-05-31 08:20:00,
2013-05-31 04:25:00,70.7,63.9,29.98,South,190,0.0,2.0,79,0.00,,---,0.00,VWS V14.01,2013-05-31 08:25:00,
2013-05-31 04:30:00,70.7,64.2,29.98,West,277,0.0,1.0,80,0.00,,---,0.00,VWS V14.01,2013-05-31 08:30:00,
2013-05-31 04:35:00,70.7,63.9,29.98,ESE,121,3.0,4.0,79,0.00,,---,0.00,VWS V14.01,2013-05-31 08:35:00,
2013-05-31 04:40:00,70.6,64.1,29.98,East,91,2.0,2.0,80,0.00,,---,0.00,VWS V14.01,2013-05-31 08:40:00,
2013-05-31 04:45:00,70.5,64.0,29.98,SE,132,2.0,2.0,80,0.00,,---,0.00,VWS V14.01,2013-05-31 08:45:00,
2013-05-31 04:50:00,70.6,64.1,29.98,South,191,0.0,1.0,80,0.00,,---,0.00,VWS V14.01,2013-05-31 08:50:00,
2013-05-31 04:55:00,70.5,64.0,29.99,ESE,115,0.0,0.0,80,0.00,,---,0.00,VWS V14.01,2013-05-31 08:55:00,
2013-05-31 05:00:00,70.5,64.0,29.98,ESE,119,0.0,0.0,80,0.00,,---,0.00,VWS V14.01,2013-05-31 09:00:00,
2013-05-31 05:05:00,70.3,63.8,29.99,ESE,108,0.0,0.0,80,0.00,,---,0.00,VWS V14.01,2013-05-31 09:05:00,
2013-05-31 05:10:00,70.2,63.8,29.99,SE,124,1.0,2.0,80,0.00,,---,0.00,VWS V14.01,2013-05-31 09:10:00,
2013-05-31 05:15:00,70.2,63.8,29.99,East,98,0.0,0.0,80,0.00,,---,0.00,VWS V14.01,2013-05-31 09:15:00,
2013-05-31 05:20:00,70.1,63.7,29.99,South,185,0.0,0.0,80,0.00,,---,0.00,VWS V14.01,2013-05-31 09:20:00,
2013-05-31 05:25:00,69.9,63.8,29.99,East,92,0.0,0.0,81,0.00,,---,0.00,VWS V14.01,2013-05-31 09:25:00,
2013-05-31 05:30:00,69.9,63.8,29.99,SE,138,0.0,2.0,81,0.00,,---,0.00,VWS V14.01,2013-05-31 09:30:00,
2013-05-31 05:35:00,69.7,63.6,29.99,ESE,112,2.0,3.0,81,0.00,,---,0.00,VWS V14.01,2013-05-31 09:35:00,
2013-05-31 05:40:00,69.7,63.6,29.99,NE,50,0.0,1.0,81,0.00,,---,0.00,VWS V14.01,2013-05-31 09:40:00,
2013-05-31 05:45:00,69.5,63.4,29.99,SW,225,0.0,3.0,81,0.00,,---,0.00,VWS V14.01,2013-05-31 09:45:00,
2013-05-31 05:50:00,69.6,63.9,29.99,SE,140,2.0,5.0,82,0.00,,---,0.00,VWS V14.01,2013-05-31 09:50:00,
2013-05-31 05:55:00,69.6,63.5,29.99,ESE,114,2.0,4.0,81,0.00,,---,0.00,VWS V14.01,2013-05-31 09:55:00,
2013-05-31 06:00:00,69.6,63.5,29.99,WNW,288,0.0,0.0,81,0.00,,---,0.00,VWS V14.01,2013-05-31 10:00:00,
2013-05-31 06:05:00,69.6,63.9,29.99,NE,36,1.0,1.0,82,0.00,,---,0.00,VWS V14.01,2013-05-31 10:05:00,
2013-05-31 06:10:00,69.7,63.6,29.99,East,89,0.0,1.0,81,0.00,,---,0.00,VWS V14.01,2013-05-31 10:10:00,
2013-05-31 06:15:00,69.8,63.7,29.99,ESE,119,0.0,0.0,81,0.00,,---,0.00,VWS V14.01,2013-05-31 10:15:00,
2013-05-31 06:20:00,69.8,63.7,29.99,East,97,0.0,2.0,81,0.00,,---,0.00,VWS V14.01,2013-05-31 10:20:00,
2013-05-31 06:25:00,69.7,63.6,29.99,ESE,122,0.0,0.0,81,0.00,,---,0.00,VWS V14.01,2013-05-31 10:25:00,
2013-05-31 06:30:00,69.7,63.6,29.99,ENE,76,0.0,1.0,81,0.00,,---,0.00,VWS V14.01,2013-05-31 10:30:00,
2013-05-31 06:35:00,69.7,63.6,29.99,East,87,2.0,2.0,81,0.00,,---,0.00,VWS V14.01,2013-05-31 10:35:00,
2013-05-31 06:40:00,69.8,63.7,29.99,ESE,121,0.0,0.0,81,0.00,,---,0.00,VWS V14.01,2013-05-31 10:40:00,
2013-05-31 06:45:00,69.8,63.7,29.99,SE,126,2.0,2.0,81,0.00,,---,0.00,VWS V14.01,2013-05-31 10:45:00,
2013-05-31 06:50:00,69.8,63.7,29.99,ESE,115,4.0,4.0,81,0.00,,---,0.00,VWS V14.01,2013-05-31 10:50:00,
2013-05-31 06:55:00,69.9,63.8,29.99,East,93,2.0,5.0,81,0.00,,---,0.00,VWS V14.01,2013-05-31 10:55:00,
2013-05-31 07:00:00,70.1,64.0,29.99,ENE,76,3.0,3.0,81,0.00,,---,0.00,VWS V14.01,2013-05-31 11:00:00,
2013-05-31 07:05:00,70.2,64.1,29.99,SE,128,1.0,3.0,81,0.00,,---,0.00,VWS V14.01,2013-05-31 11:05:00,
2013-05-31 07:10:00,70.3,64.2,29.99,SE,132,2.0,4.0,81,0.00,,---,0.00,VWS V14.01,2013-05-31 11:10:00,
2013-05-31 07:15:00,70.4,64.3,29.99,ENE,76,2.0,4.0,81,0.00,,---,0.00,VWS V14.01,2013-05-31 11:15:00,
2013-05-31 07:20:00,70.5,64.4,30.00,ESE,110,2.0,3.0,81,0.00,,---,0.00,VWS V14.01,2013-05-31 11:20:00,
2013-05-31 07:25:00,70.6,64.1,30.00,East,88,2.0,2.0,80,0.00,,---,0.00,VWS V14.01,2013-05-31 11:25:00,
2013-05-31 07:30:00,70.7,64.2,30.00,East,87,1.0,2.0,80,0.00,,---,0.00,VWS V14.01,2013-05-31 11:30:00,
2013-05-31 07:35:00,70.8,64.3,30.00,East,80,2.0,7.0,80,0.00,,---,0.00,VWS V14.01,2013-05-31 11:35:00,
2013-05-31 07:40:00,70.9,64.4,30.00,ENE,68,0.0,1.0,80,0.00,,---,0.00,VWS V14.01,2013-05-31 11:40:00,
2013-05-31 07:45:00,71.1,64.6,30.00,East,85,1.0,4.0,80,0.00,,---,0.00,VWS V14.01,2013-05-31 11:45:00,
2013-05-31 07:50:00,71.2,64.7,30.00,West,275,0.0,1.0,80,0.00,,---,0.00,VWS V14.01,2013-05-31 11:50:00,
2013-05-31 07:55:00,71.3,64.8,30.00,SE,124,0.0,1.0,80,0.00,,---,0.00,VWS V14.01,2013-05-31 11:55:00,
2013-05-31 08:00:00,71.6,65.1,30.01,ENE,74,2.0,2.0,80,0.00,,---,0.00,VWS V14.01,2013-05-31 12:00:00,
2013-05-31 08:05:00,71.9,65.0,30.01,SE,135,0.0,2.0,79,0.00,,---,0.00,VWS V14.01,2013-05-31 12:05:00,
2013-05-31 08:10:00,72.3,65.1,30.01,ESE,104,3.0,6.0,78,0.00,,---,0.00,VWS V14.01,2013-05-31 12:10:00,
2013-05-31 08:15:00,72.5,65.3,30.01,East,86,2.0,2.0,78,0.00,,---,0.00,VWS V14.01,2013-05-31 12:15:00,
2013-05-31 08:20:00,72.6,65.3,30.01,SE,124,3.0,3.0,78,0.00,,---,0.00,VWS V14.01,2013-05-31 12:20:00,
2013-05-31 08:25:00,72.5,65.3,30.01,East,85,2.0,4.0,78,0.00,,---,0.00,VWS V14.01,2013-05-31 12:25:00,
2013-05-31 08:30:00,72.5,65.6,30.01,ENE,69,1.0,1.0,79,0.00,,---,0.00,VWS V14.01,2013-05-31 12:30:00,
2013-05-31 08:35:00,72.6,65.7,30.01,ENE,61,3.0,3.0,79,0.00,,---,0.00,VWS V14.01,2013-05-31 12:35:00,
2013-05-31 08:40:00,72.8,65.6,30.01,North,2,0.0,6.0,78,0.00,,---,0.00,VWS V14.01,2013-05-31 12:40:00,
2013-05-31 08:45:00,73.2,65.9,30.01,ENE,66,3.0,3.0,78,0.00,,---,0.00,VWS V14.01,2013-05-31 12:45:00,
2013-05-31 08:50:00,73.5,65.9,30.01,ENE,61,0.0,1.0,77,0.00,,---,0.00,VWS V14.01,2013-05-31 12:50:00,
2013-05-31 08:55:00,73.7,66.1,30.01,NW,317,0.0,3.0,77,0.00,,---,0.00,VWS V14.01,2013-05-31 12:55:00,
2013-05-31 09:03:00,74.1,66.4,30.01,ENE,68,0.0,2.0,77,0.00,,---,0.00,VWS V14.01,2013-05-31 13:03:00,
2013-05-31 09:08:00,74.4,66.3,30.01,ESE,121,0.0,0.0,76,0.00,,---,0.00,VWS V14.01,2013-05-31 13:08:00,
2013-05-31 09:13:00,74.6,66.2,30.00,SE,127,3.0,3.0,75,0.00,,---,0.00,VWS V14.01,2013-05-31 13:13:00,
2013-05-31 09:18:00,75.0,66.6,30.00,ESE,114,4.0,4.0,75,0.00,,---,0.00,VWS V14.01,2013-05-31 13:18:00,
2013-05-31 09:23:00,75.5,66.6,30.00,ESE,111,1.0,2.0,74,0.00,,---,0.00,VWS V14.01,2013-05-31 13:23:00,
2013-05-31 09:28:00,76.1,66.8,30.00,SW,235,1.0,2.0,73,0.00,,---,0.00,VWS V14.01,2013-05-31 13:28:00,
2013-05-31 09:33:00,76.4,67.1,30.00,SE,138,4.0,4.0,73,0.00,,---,0.00,VWS V14.01,2013-05-31 13:33:00,
2013-05-31 09:38:00,76.9,67.6,30.00,NNW,333,1.0,2.0,73,0.00,,---,0.00,VWS V14.01,2013-05-31 13:38:00,
2013-05-31 09:43:00,77.1,67.4,30.01,SE,128,2.0,4.0,72,0.00,,---,0.00,VWS V14.01,2013-05-31 13:43:00,
2013-05-31 09:48:00,77.5,67.8,30.01,West,273,1.0,3.0,72,0.00,,---,0.00,VWS V14.01,2013-05-31 13:48:00,
2013-05-31 09:53:00,77.4,67.3,30.01,NE,44,1.0,1.0,71,0.00,,---,0.00,VWS V14.01,2013-05-31 13:53:00,
2013-05-31 09:58:00,77.1,67.4,30.01,SW,229,3.0,7.0,72,0.00,,---,0.00,VWS V14.01,2013-05-31 13:58:00,
2013-05-31 10:03:00,76.9,67.2,30.01,East,82,3.0,5.0,72,0.00,,---,0.00,VWS V14.01,2013-05-31 14:03:00,
2013-05-31 10:08:00,76.9,67.2,30.01,SW,217,3.0,6.0,72,0.00,,---,0.00,VWS V14.01,2013-05-31 14:08:00,
2013-05-31 10:13:00,76.9,67.6,30.01,SE,128,2.0,2.0,73,0.00,,---,0.00,VWS V14.01,2013-05-31 14:13:00,
2013-05-31 10:18:00,76.9,67.2,30.01,ENE,62,2.0,11.0,72,0.00,,---,0.00,VWS V14.01,2013-05-31 14:18:00,
2013-05-31 10:23:00,76.8,67.1,30.01,SSE,165,2.0,7.0,72,0.00,,---,0.00,VWS V14.01,2013-05-31 14:23:00,
2013-05-31 10:28:00,76.6,67.7,30.00,SE,128,5.0,5.0,74,0.00,,---,0.00,VWS V14.01,2013-05-31 14:28:00,
2013-05-31 10:33:00,76.7,67.8,30.00,SSW,200,2.0,4.0,74,0.00,,---,0.00,VWS V14.01,2013-05-31 14:33:00,
2013-05-31 10:38:00,77.0,67.7,30.00,North,6,3.0,3.0,73,0.00,,---,0.00,VWS V14.01,2013-05-31 14:38:00,
2013-05-31 10:43:00,77.6,68.3,30.00,North,5,4.0,4.0,73,0.00,,---,0.00,VWS V14.01,2013-05-31 14:43:00,
2013-05-31 10:48:00,78.1,68.3,30.00,ENE,61,2.0,6.0,72,0.00,,---,0.00,VWS V14.01,2013-05-31 14:48:00,
2013-05-31 10:53:00,78.5,68.7,30.00,East,98,3.0,5.0,72,0.00,,---,0.00,VWS V14.01,2013-05-31 14:53:00,
2013-05-31 10:58:00,78.6,68.8,30.00,NE,53,2.0,2.0,72,0.00,,---,0.00,VWS V14.01,2013-05-31 14:58:00,
2013-05-31 11:03:00,78.6,68.8,30.00,ESE,115,0.0,1.0,72,0.00,,---,0.00,VWS V14.01,2013-05-31 15:03:00,
2013-05-31 11:08:00,78.3,68.5,30.00,ENE,71,2.0,4.0,72,0.00,,---,0.00,VWS V14.01,2013-05-31 15:08:00,
2013-05-31 11:13:00,77.9,68.2,30.00,SW,233,2.0,4.0,72,0.00,,---,0.00,VWS V14.01,2013-05-31 15:13:00,
2013-05-31 11:18:00,77.8,68.1,29.99,NNE,26,0.0,1.0,72,0.00,,---,0.00,VWS V14.01,2013-05-31 15:18:00,
2013-05-31 11:23:00,78.0,68.2,30.00,SE,138,0.0,9.0,72,0.00,,---,0.00,VWS V14.01,2013-05-31 15:23:00,
2013-05-31 11:28:00,78.0,68.7,29.99,East,94,4.0,4.0,73,0.00,,---,0.00,VWS V14.01,2013-05-31 15:28:00,
2013-05-31 11:33:00,77.9,68.2,29.99,ESE,118,1.0,4.0,72,0.00,,---,0.00,VWS V14.01,2013-05-31 15:33:00,
2013-05-31 11:38:00,77.9,68.2,30.00,SE,135,2.0,4.0,72,0.00,,---,0.00,VWS V14.01,2013-05-31 15:38:00,
2013-05-31 11:43:00,77.6,68.3,29.99,NE,46,1.0,2.0,73,0.00,,---,0.00,VWS V14.01,2013-05-31 15:43:00,
2013-05-31 11:48:00,77.2,68.3,30.00,North,358,2.0,4.0,74,0.00,,---,0.00,VWS V14.01,2013-05-31 15:48:00,
2013-05-31 11:53:00,76.6,68.1,30.00,ENE,63,0.0,8.0,75,0.00,,---,0.00,VWS V14.01,2013-05-31 15:53:00,
2013-05-31 11:58:00,76.0,68.3,30.00,ESE,118,0.0,2.0,77,0.00,,---,0.00,VWS V14.01,2013-05-31 15:58:00,
2013-05-31 12:03:00,75.7,68.0,29.99,West,267,4.0,4.0,77,0.00,,---,0.00,VWS V14.01,2013-05-31 16:03:00,
2013-05-31 12:08:00,76.0,68.7,29.99,SSW,209,2.0,6.0,78,0.00,,---,0.00,VWS V14.01,2013-05-31 16:08:00,
2013-05-31 12:13:00,76.6,69.2,29.99,ENE,69,0.0,1.0,78,0.00,,---,0.00,VWS V14.01,2013-05-31 16:13:00,
2013-05-31 12:18:00,77.0,69.2,29.99,SSW,202,0.0,3.0,77,0.00,,---,0.00,VWS V14.01,2013-05-31 16:18:00,
2013-05-31 12:23:00,77.2,69.4,29.99,WSW,252,0.0,2.0,77,0.00,,---,0.00,VWS V14.01,2013-05-31 16:23:00,
2013-05-31 12:28:00,77.3,69.2,29.98,SSE,156,0.0,1.0,76,0.00,,---,0.00,VWS V14.01,2013-05-31 16:28:00,
2013-05-31 12:33:00,77.7,69.5,29.98,West,262,1.0,5.0,76,0.00,,---,0.00,VWS V14.01,2013-05-31 16:33:00,
2013-05-31 12:38:00,78.0,69.4,29.98,East,81,1.0,2.0,75,0.00,,---,0.00,VWS V14.01,2013-05-31 16:38:00,
2013-05-31 12:43:00,78.1,69.1,29.98,NE,50,2.0,3.0,74,0.00,,---,0.00,VWS V14.01,2013-05-31 16:43:00,
2013-05-31 12:48:00,77.8,69.2,29.98,ESE,122,0.0,2.0,75,0.00,,---,0.00,VWS V14.01,2013-05-31 16:48:00,
2013-05-31 12:53:00,77.4,69.2,29.99,ENE,61,3.0,4.0,76,0.00,,---,0.00,VWS V14.01,2013-05-31 16:53:00,
2013-05-31 12:57:00,76.9,69.9,29.99,ENE,60,1.0,1.0,79,0.00,,---,0.00,VWS V14.01,2013-05-31 16:57:00,
2013-05-31 13:02:00,76.4,69.8,29.98,SE,131,1.0,1.0,80,0.00,,---,0.00,VWS V14.01,2013-05-31 17:02:00,
2013-05-31 13:07:00,76.0,69.4,29.98,East,94,1.0,2.0,80,0.00,,---,0.00,VWS V14.01,2013-05-31 17:07:00,
2013-05-31 13:12:00,75.8,69.6,29.98,North,356,1.0,3.0,81,0.00,,---,0.00,VWS V14.01,2013-05-31 17:12:00,
2013-05-31 13:17:00,75.9,69.7,29.98,West,267,3.0,3.0,81,0.00,,---,0.00,VWS V14.01,2013-05-31 17:17:00,
2013-05-31 13:22:00,76.0,69.0,29.98,ESE,121,2.0,6.0,79,0.00,,---,0.00,VWS V14.01,2013-05-31 17:22:00,
2013-05-31 13:27:00,76.2,69.6,29.98,ENE,64,0.0,0.0,80,0.00,,---,0.00,VWS V14.01,2013-05-31 17:27:00,
2013-05-31 13:32:00,76.3,70.1,29.97,ENE,72,0.0,0.0,81,0.01,,---,0.01,VWS V14.01,2013-05-31 17:32:00,
2013-05-31 13:37:00,76.0,70.1,29.97,SW,219,0.0,2.0,82,0.01,,---,0.01,VWS V14.01,2013-05-31 17:37:00,
2013-05-31 13:42:00,76.0,70.5,29.97,NNE,13,0.0,0.0,83,0.01,,---,0.01,VWS V14.01,2013-05-31 17:42:00,
2013-05-31 13:47:00,76.1,69.8,29.97,South,170,0.0,3.0,81,0.01,,---,0.01,VWS V14.01,2013-05-31 17:47:00,
2013-05-31 13:52:00,76.1,69.8,29.97,NE,40,6.0,6.0,81,0.01,,---,0.01,VWS V14.01,2013-05-31 17:52:00,
2013-05-31 13:57:00,76.1,69.1,29.96,East,98,2.0,5.0,79,0.01,,---,0.01,VWS V14.01,2013-05-31 17:57:00,
2013-05-31 14:02:00,75.9,68.9,29.96,NW,315,4.0,4.0,79,0.01,,---,0.01,VWS V14.01,2013-05-31 18:02:00,
2013-05-31 14:07:00,75.7,69.1,29.96,SW,233,4.0,4.0,80,0.01,,---,0.01,VWS V14.01,2013-05-31 18:07:00,
2013-05-31 14:12:00,76.0,69.0,29.96,NE,42,1.0,1.0,79,0.01,,---,0.01,VWS V14.01,2013-05-31 18:12:00,
2013-05-31 14:17:00,76.6,69.2,29.96,ESE,110,3.0,5.0,78,0.01,,---,0.01,VWS V14.01,2013-05-31 18:17:00,
2013-05-31 14:22:00,77.0,69.6,29.96,ENE,69,4.0,9.0,78,0.01,,---,0.01,VWS V14.01,2013-05-31 18:22:00,
2013-05-31 14:27:00,77.2,69.4,29.96,WSW,252,2.0,3.0,77,0.01,,---,0.01,VWS V14.01,2013-05-31 18:27:00,
2013-05-31 14:32:00,77.3,69.5,29.97,SSW,200,1.0,3.0,77,0.00,,---,0.01,VWS V14.01,2013-05-31 18:32:00,
2013-05-31 14:37:00,77.5,70.1,29.97,East,85,2.0,3.0,78,0.00,,---,0.01,VWS V14.01,2013-05-31 18:37:00,
2013-05-31 14:42:00,78.3,70.5,29.97,South,172,3.0,5.0,77,0.00,,---,0.01,VWS V14.01,2013-05-31 18:42:00,
2013-05-31 14:47:00,79.0,70.4,29.97,West,266,11.0,11.0,75,0.00,,---,0.01,VWS V14.01,2013-05-31 18:47:00,
2013-05-31 14:52:00,78.8,70.2,29.97,SW,232,2.0,3.0,75,0.00,,---,0.01,VWS V14.01,2013-05-31 18:52:00,
2013-05-31 14:57:00,78.3,69.7,29.97,North,351,2.0,2.0,75,0.00,,---,0.01,VWS V14.01,2013-05-31 18:57:00,
2013-05-31 15:02:00,77.4,69.6,29.98,ENE,67,3.0,4.0,77,0.00,,---,0.01,VWS V14.01,2013-05-31 19:02:00,
2013-05-31 15:07:00,76.6,69.2,29.98,ESE,121,3.0,5.0,78,0.00,,---,0.01,VWS V14.01,2013-05-31 19:07:00,
2013-05-31 15:12:00,76.0,69.0,29.98,East,81,1.0,1.0,79,0.00,,---,0.01,VWS V14.01,2013-05-31 19:12:00,
2013-05-31 15:17:00,75.6,69.4,29.98,ESE,109,1.0,2.0,81,0.00,,---,0.01,VWS V14.01,2013-05-31 19:17:00,
2013-05-31 15:22:00,75.3,69.4,29.98,SSE,164,0.0,0.0,82,0.00,,---,0.01,VWS V14.01,2013-05-31 19:22:00,
2013-05-31 15:27:00,75.2,69.3,29.98,ENE,75,6.0,7.0,82,0.00,,---,0.01,VWS V14.01,2013-05-31 19:27:00,
2013-05-31 15:32:00,75.1,69.6,29.98,NNW,327,1.0,1.0,83,0.00,,---,0.01,VWS V14.01,2013-05-31 19:32:00,
2013-05-31 15:37:00,74.9,69.0,29.98,SSE,153,2.0,4.0,82,0.00,,---,0.01,VWS V14.01,2013-05-31 19:37:00,
2013-05-31 15:42:00,74.9,69.0,29.98,SSE,157,0.0,0.0,82,0.00,,---,0.01,VWS V14.01,2013-05-31 19:42:00,
2013-05-31 15:47:00,75.1,69.6,29.98,ENE,74,2.0,2.0,83,0.00,,---,0.01,VWS V14.01,2013-05-31 19:47:00,
2013-05-31 15:52:00,75.4,69.9,29.98,SSE,153,1.0,2.0,83,0.00,,---,0.01,VWS V14.01,2013-05-31 19:52:00,
2013-05-31 15:57:00,76.2,70.7,29.97,ESE,121,1.0,2.0,83,0.00,,---,0.01,VWS V14.01,2013-05-31 19:57:00,
2013-05-31 16:02:00,77.2,71.3,29.97,SE,130,0.0,0.0,82,0.00,,---,0.01,VWS V14.01,2013-05-31 20:02:00,
2013-05-31 16:07:00,77.8,70.8,29.97,NNE,20,4.0,4.0,79,0.00,,---,0.01,VWS V14.01,2013-05-31 20:07:00,
2013-05-31 16:12:00,78.4,72.1,29.97,SSW,201,1.0,1.0,81,0.00,,---,0.01,VWS V14.01,2013-05-31 20:12:00,
2013-05-31 16:17:00,79.1,72.0,29.97,West,277,1.0,1.0,79,0.00,,---,0.01,VWS V14.01,2013-05-31 20:17:00,
2013-05-31 16:22:00,79.3,71.5,29.97,SW,223,0.0,3.0,77,0.00,,---,0.01,VWS V14.01,2013-05-31 20:22:00,
2013-05-31 16:27:00,79.0,70.4,29.97,East,86,2.0,7.0,75,0.00,,---,0.01,VWS V14.01,2013-05-31 20:27:00,
2013-05-31 16:32:00,79.0,70.8,29.96,NE,50,3.0,4.0,76,0.00,,---,0.01,VWS V14.01,2013-05-31 20:32:00,
2013-05-31 16:37:00,79.5,71.3,29.96,NW,325,2.0,2.0,76,0.00,,---,0.01,VWS V14.01,2013-05-31 20:37:00,
2013-05-31 16:42:00,80.4,71.4,29.96,SSW,202,2.0,8.0,74,0.00,,---,0.01,VWS V14.01,2013-05-31 20:42:00,
2013-05-31 16:47:00,80.6,70.8,29.96,West,266,2.0,4.0,72,0.00,,---,0.01,VWS V14.01,2013-05-31 20:47:00,
2013-05-31 16:52:00,80.3,70.5,29.96,WSW,246,2.0,7.0,72,0.00,,---,0.01,VWS V14.01,2013-05-31 20:52:00,
2013-05-31 16:57:00,80.4,71.0,29.96,NE,43,0.0,5.0,73,0.00,,---,0.01,VWS V14.01,2013-05-31 20:57:00,
2013-05-31 17:02:00,80.8,70.9,29.95,SSE,149,0.0,4.0,72,0.00,,---,0.01,VWS V14.01,2013-05-31 21:02:00,
2013-05-31 17:07:00,80.8,70.5,29.96,NE,41,0.0,4.0,71,0.00,,---,0.01,VWS V14.01,2013-05-31 21:07:00,
2013-05-31 17:12:00,80.7,70.8,29.95,NW,306,5.0,6.0,72,0.00,,---,0.01,VWS V14.01,2013-05-31 21:12:00,
2013-05-31 17:17:00,80.8,71.3,29.95,SE,136,1.0,1.0,73,0.00,,---,0.01,VWS V14.01,2013-05-31 21:17:00,
2013-05-31 17:22:00,80.8,71.3,29.95,NNE,22,2.0,4.0,73,0.00,,---,0.01,VWS V14.01,2013-05-31 21:22:00,
2013-05-31 17:27:00,80.5,70.7,29.95,SE,143,1.0,3.0,72,0.00,,---,0.01,VWS V14.01,2013-05-31 21:27:00,
2013-05-31 17:32:00,79.9,70.5,29.95,NW,304,0.0,3.0,73,0.00,,---,0.01,VWS V14.01,2013-05-31 21:32:00,
2013-05-31 17:37:00,79.4,70.4,29.95,WNW,301,1.0,1.0,74,0.00,,---,0.01,VWS V14.01,2013-05-31 21:37:00,
2013-05-31 17:42:00,79.1,70.5,29.95,West,275,4.0,4.0,75,0.00,,---,0.01,VWS V14.01,2013-05-31 21:42:00,
2013-05-31 17:47:00,79.2,71.0,29.95,East,90,1.0,1.0,76,0.00,,---,0.01,VWS V14.01,2013-05-31 21:47:00,
2013-05-31 17:52:00,79.3,71.1,29.95,SW,218,0.0,2.0,76,0.00,,---,0.01,VWS V14.01,2013-05-31 21:52:00,
2013-05-31 17:57:00,79.2,70.6,29.95,NE,41,1.0,6.0,75,0.00,,---,0.01,VWS V14.01,2013-05-31 21:57:00,
2013-05-31 18:02:00,78.9,69.9,29.95,ENE,57,1.0,3.0,74,0.00,,---,0.01,VWS V14.01,2013-05-31 22:02:00,
2013-05-31 18:07:00,78.9,69.5,29.94,East,81,4.0,4.0,73,0.00,,---,0.01,VWS V14.01,2013-05-31 22:07:00,
2013-05-31 18:12:00,78.8,69.8,29.95,SE,136,0.0,4.0,74,0.00,,---,0.01,VWS V14.01,2013-05-31 22:12:00,
2013-05-31 18:17:00,78.8,69.8,29.95,SW,216,6.0,6.0,74,0.00,,---,0.01,VWS V14.01,2013-05-31 22:17:00,
2013-05-31 18:22:00,78.7,70.1,29.95,NNW,343,0.0,0.0,75,0.00,,---,0.01,VWS V14.01,2013-05-31 22:22:00,
2013-05-31 18:27:00,78.5,69.9,29.95,SSE,153,1.0,4.0,75,0.00,,---,0.01,VWS V14.01,2013-05-31 22:27:00,
2013-05-31 18:32:00,78.2,70.0,29.94,East,79,0.0,1.0,76,0.00,,---,0.01,VWS V14.01,2013-05-31 22:32:00,
2013-05-31 18:37:00,77.9,70.5,29.94,SE,140,2.0,2.0,78,0.00,,---,0.01,VWS V14.01,2013-05-31 22:37:00,
2013-05-31 18:42:00,77.6,70.6,29.94,ESE,102,0.0,0.0,79,0.00,,---,0.01,VWS V14.01,2013-05-31 22:42:00,
2013-05-31 18:47:00,77.3,71.0,29.94,East,90,0.0,1.0,81,0.00,,---,0.01,VWS V14.01,2013-05-31 22:47:00,
2013-05-31 18:52:00,77.1,70.8,29.94,West,274,0.0,0.0,81,0.00,,---,0.01,VWS V14.01,2013-05-31 22:52:00,
2013-05-31 18:57:00,77.2,71.3,29.93,NNE,28,0.0,1.0,82,0.00,,---,0.01,VWS V14.01,2013-05-31 22:57:00,
2013-05-31 19:01:00,77.7,71.4,29.93,ESE,102,1.0,2.0,81,0.00,,---,0.01,VWS V14.01,2013-05-31 23:01:00,
2013-05-31 19:06:00,78.1,71.4,29.93,NW,325,2.0,2.0,80,0.00,,---,0.01,VWS V14.01,2013-05-31 23:06:00,
2013-05-31 19:12:00,78.8,71.7,29.93,ENE,76,1.0,2.0,79,0.00,,---,0.01,VWS V14.01,2013-05-31 23:12:00,
2013-05-31 19:17:00,79.1,71.7,29.93,ESE,116,1.0,6.0,78,0.00,,---,0.01,VWS V14.01,2013-05-31 23:17:00,
2013-05-31 19:22:00,79.3,71.1,29.93,East,101,3.0,3.0,76,0.00,,---,0.01,VWS V14.01,2013-05-31 23:22:00,
2013-05-31 19:26:00,79.1,70.9,29.93,NNE,13,3.0,4.0,76,0.00,,---,0.01,VWS V14.01,2013-05-31 23:26:00,
2013-05-31 19:31:00,78.6,70.0,29.93,ENE,57,1.0,3.0,75,0.00,,---,0.01,VWS V14.01,2013-05-31 23:31:00,
2013-05-31 19:36:00,78.1,69.9,29.93,ENE,69,2.0,2.0,76,0.00,,---,0.01,VWS V14.01,2013-05-31 23:36:00,
2013-05-31 19:41:00,77.7,69.9,29.93,WSW,257,0.0,1.0,77,0.00,,---,0.01,VWS V14.01,2013-05-31 23:41:00,
2013-05-31 19:46:00,77.4,70.0,29.93,WNW,285,0.0,0.0,78,0.00,,---,0.01,VWS V14.01,2013-05-31 23:46:00,
2013-05-31 19:51:00,77.3,69.5,29.93,ENE,72,2.0,2.0,77,0.00,,---,0.01,VWS V14.01,2013-05-31 23:51:00,
2013-05-31 19:56:00,77.1,69.7,29.94,ESE,117,0.0,1.0,78,0.00,,---,0.01,VWS V14.01,2013-05-31 23:56:00,
2013-05-31 20:01:00,77.0,69.6,29.93,NW,304,1.0,1.0,78,0.00,,---,0.01,VWS V14.01,2013-06-01 00:01:00,
2013-05-31 20:06:00,76.8,69.8,29.93,ESE,121,2.0,2.0,79,0.00,,---,0.01,VWS V14.01,2013-06-01 00:06:00,
2013-05-31 20:11:00,76.5,69.5,29.93,ENE,62,1.0,1.0,79,0.00,,---,0.01,VWS V14.01,2013-06-01 00:11:00,
2013-05-31 20:16:00,76.3,69.7,29.93,ENE,74,6.0,6.0,80,0.00,,---,0.01,VWS V14.01,2013-06-01 00:16:00,
2013-05-31 20:21:00,76.0,69.4,29.93,East,88,0.0,0.0,80,0.00,,---,0.01,VWS V14.01,2013-06-01 00:21:00,
2013-05-31 20:26:00,75.8,69.6,29.93,ESE,102,1.0,1.0,81,0.00,,---,0.01,VWS V14.01,2013-06-01 00:26:00,
2013-05-31 20:31:00,75.6,69.7,29.93,SE,140,0.0,1.0,82,0.00,,---,0.01,VWS V14.01,2013-06-01 00:31:00,
2013-05-31 20:36:00,75.5,69.6,29.92,East,79,0.0,0.0,82,0.00,,---,0.01,VWS V14.01,2013-06-01 00:36:00,
2013-05-31 20:41:00,75.4,69.5,29.93,SSE,152,0.0,1.0,82,0.00,,---,0.01,VWS V14.01,2013-06-01 00:41:00,
2013-05-31 20:46:00,75.2,69.3,29.93,ESE,122,2.0,2.0,82,0.00,,---,0.01,VWS V14.01,2013-06-01 00:46:00,
2013-05-31 20:51:00,75.0,69.5,29.92,SE,140,0.0,0.0,83,0.00,,---,0.01,VWS V14.01,2013-06-01 00:51:00,
2013-05-31 20:56:00,74.8,69.3,29.92,ENE,73,0.0,1.0,83,0.00,,---,0.01,VWS V14.01,2013-06-01 00:56:00,
2013-05-31 21:01:00,74.6,69.4,29.92,SE,140,0.0,0.0,84,0.00,,---,0.01,VWS V14.01,2013-06-01 01:01:00,
2013-05-31 21:06:00,74.3,69.2,29.92,East,96,0.0,0.0,84,0.00,,---,0.01,VWS V14.01,2013-06-01 01:06:00,
2013-05-31 21:11:00,74.1,69.0,29.92,SW,233,0.0,0.0,84,0.00,,---,0.01,VWS V14.01,2013-06-01 01:11:00,
2013-05-31 21:16:00,73.8,69.0,29.92,SW,233,0.0,0.0,85,0.00,,---,0.01,VWS V14.01,2013-06-01 01:16:00,
2013-05-31 21:21:00,73.5,68.7,29.92,SE,142,0.0,0.0,85,0.00,,---,0.01,VWS V14.01,2013-06-01 01:21:00,
2013-05-31 21:26:00,73.4,69.0,29.92,SE,140,0.0,0.0,86,0.00,,---,0.01,VWS V14.01,2013-06-01 01:26:00,
2013-05-31 21:31:00,73.3,68.9,29.92,East,81,0.0,0.0,86,0.00,,---,0.01,VWS V14.01,2013-06-01 01:31:00,
2013-05-31 21:36:00,73.0,68.6,29.92,East,82,0.0,0.0,86,0.00,,---,0.01,VWS V14.01,2013-06-01 01:36:00,
2013-05-31 21:41:00,72.9,68.8,29.92,SE,132,0.0,0.0,87,0.00,,---,0.01,VWS V14.01,2013-06-01 01:41:00,
2013-05-31 21:46:00,72.8,69.0,29.91,East,93,0.0,0.0,88,0.00,,---,0.01,VWS V14.01,2013-06-01 01:46:00,
2013-05-31 21:51:00,72.8,69.0,29.91,SE,129,0.0,0.0,88,0.00,,---,0.01,VWS V14.01,2013-06-01 01:51:00,
2013-05-31 21:56:00,72.7,68.9,29.91,ESE,109,0.0,0.0,88,0.00,,---,0.01,VWS V14.01,2013-06-01 01:56:00,
2013-05-31 22:01:00,72.7,68.9,29.91,SE,126,0.0,0.0,88,0.00,,---,0.01,VWS V14.01,2013-06-01 02:01:00,
2013-05-31 22:06:00,72.7,68.9,29.91,ESE,118,0.0,0.0,88,0.00,,---,0.01,VWS V14.01,2013-06-01 02:06:00,
2013-05-31 22:11:00,72.7,68.9,29.91,ESE,111,0.0,0.0,88,0.00,,---,0.01,VWS V14.01,2013-06-01 02:11:00,
2013-05-31 22:16:00,72.6,68.8,29.91,ESE,122,0.0,0.0,88,0.00,,---,0.01,VWS V14.01,2013-06-01 02:16:00,
2013-05-31 22:21:00,72.6,69.2,29.91,SE,146,0.0,0.0,89,0.00,,---,0.01,VWS V14.01,2013-06-01 02:21:00,
2013-05-31 22:26:00,72.7,68.9,29.91,East,98,0.0,0.0,88,0.00,,---,0.01,VWS V14.01,2013-06-01 02:26:00,
2013-05-31 22:31:00,72.8,69.0,29.92,East,98,0.0,0.0,88,0.00,,---,0.01,VWS V14.01,2013-06-01 02:31:00,
2013-05-31 22:36:00,72.8,69.0,29.92,ENE,57,0.0,0.0,88,0.00,,---,0.01,VWS V14.01,2013-06-01 02:36:00,
2013-05-31 22:41:00,72.7,68.9,29.92,ENE,76,0.0,0.0,88,0.00,,---,0.01,VWS V14.01,2013-06-01 02:41:00,
2013-05-31 22:46:00,72.8,69.0,29.92,SE,132,0.0,1.0,88,0.00,,---,0.01,VWS V14.01,2013-06-01 02:46:00,
2013-05-31 22:51:00,72.7,68.9,29.92,WSW,247,0.0,2.0,88,0.00,,---,0.01,VWS V14.01,2013-06-01 02:51:00,
2013-05-31 22:56:00,72.7,68.9,29.92,SE,132,0.0,0.0,88,0.00,,---,0.01,VWS V14.01,2013-06-01 02:56:00,
2013-05-31 23:01:00,72.7,68.9,29.93,ENE,78,1.0,1.0,88,0.00,,---,0.01,VWS V14.01,2013-06-01 03:01:00,
2013-05-31 23:06:00,72.8,68.7,29.93,ESE,114,0.0,1.0,87,0.00,,---,0.01,VWS V14.01,2013-06-01 03:06:00,
2013-05-31 23:11:00,72.9,68.8,29.93,East,96,0.0,1.0,87,0.00,,---,0.01,VWS V14.01,2013-06-01 03:11:00,
2013-05-31 23:16:00,73.0,68.9,29.93,ENE,76,0.0,1.0,87,0.00,,---,0.01,VWS V14.01,2013-06-01 03:16:00,
2013-05-31 23:21:00,73.1,68.7,29.93,NE,53,2.0,2.0,86,0.00,,---,0.01,VWS V14.01,2013-06-01 03:21:00,
2013-05-31 23:26:00,73.3,68.5,29.93,East,93,0.0,0.0,85,0.00,,---,0.01,VWS V14.01,2013-06-01 03:26:00,
2013-05-31 23:31:00,73.2,68.4,29.93,ESE,107,0.0,0.0,85,0.00,,---,0.01,VWS V14.01,2013-06-01 03:31:00,
2013-05-31 23:36:00,73.0,68.2,29.93,ESE,112,0.0,0.0,85,0.00,,---,0.01,VWS V14.01,2013-06-01 03:36:00,
2013-05-31 23:41:00,73.0,68.2,29.93,East,79,0.0,0.0,85,0.00,,---,0.01,VWS V14.01,2013-06-01 03:41:00,
2013-05-31 23:46:00,73.1,68.3,29.93,ESE,102,0.0,2.0,85,0.00,,---,0.01,VWS V14.01,2013-06-01 03:46:00,
2013-05-31 23:51:00,73.3,68.2,29.93,SE,126,0.0,1.0,84,0.00,,---,0.01,VWS V14.01,2013-06-01 03:51:00,
2013-05-31 23:56:00,73.2,68.1,29.93,ESE,107,0.0,0.0,84,0.00,,---,0.01,VWS V14.01,2013-06-01 03:56:00,